Weather History for LIVC - September, 2013

Change the Weather History Date:

Sunday, September 15, 2013

  Actual Average Record
Temperature  
Mean Temperature 44 °F -  
Max Temperature 46 °F 46 °F 64 °F (2011)
Min Temperature 43 °F 38 °F 30 °F (2008)
Degree Days  
Heating Degree Days 20    
Moisture  
Dew Point 40 °F    
Average Humidity 83    
Maximum Humidity 100    
Minimum Humidity 46    
Precipitation  
Precipitation 0.12 in 0.10 in - ()
Sea Level Pressure  
Sea Level Pressure 30.05 in    
Wind  
Wind Speed 31 mph ()    
Max Wind Speed 40 mph    
Max Gust Speed -    
Visibility 3.2 miles    
Events Fog , Rain    
Averages and records for this station are not official NWS values.
T = Trace of Precipitation, MM = Missing Value Source: Averaged Metar Reports

Daily Weather History Graph

Daily Weather History Graph

Search for Another Location

Airport or City:

Trip Planner

Search our weather history database for the weather conditions in past years. The results will help you decide how hot, cold, wet, or windy it might be!

Date:

Astronomy

Sep. 15, 2013 Rise Set
Actual Time 6:56 AM CEST 7:27 PM CEST
Civil Twilight 6:27 AM CEST 7:56 PM CEST
Nautical Twilight 5:52 AM CEST 8:31 PM CEST
Astronomical Twilight 5:17 AM CEST 9:06 PM CEST
Moon 4:49 PM CEST (9/15) 2:07 AM CEST (9/15)
Length of Visible Light 13h 29m
Length of Day
12h 31m
Waxing Gibbous, 79% of the Moon is Illuminated
Sep 15
Waxing Gibbous
Sep 19
Full
Sep 27
Last Quarter
Oct 5
New
Oct 12
First Quarter

Hourly Weather History & Observations

Time (CEST) Temp. Windchill Dew Point Humidity Pressure Visibility Wind Dir Wind Speed Gust Speed Precip Events Conditions
12:55 AM 44.6 °F 34.1 °F 32.0 °F 61% 30.18 in - SSW 34.5 mph - N/A   Clear
1:55 AM 44.6 °F 33.8 °F 30.2 °F 57% 30.18 in - SSW 36.8 mph - N/A   Clear
2:00 AM 45 °F - 31 °F 46%  in 19 mi SSW 36.8 mph - -  
2:55 AM 44.6 °F 33.3 °F 32.0 °F 61% 30.15 in - SSW 40.3 mph - N/A   Clear
3:55 AM 44.6 °F 33.8 °F 37.4 °F 76% 30.15 in 6.2 mi SSW 36.8 mph - N/A   Scattered Clouds
4:55 AM 44.6 °F 34.1 °F 42.8 °F 93% 30.12 in 0.0 mi SSW 34.5 mph - N/A Fog Fog
5:55 AM 44.6 °F 33.3 °F 39.2 °F 81% 30.09 in 6.2 mi SSW 40.3 mph - N/A   Scattered Clouds
6:55 AM 44.6 °F 34.1 °F 35.6 °F 71% 30.09 in 6.2 mi SSW 34.5 mph - N/A   Scattered Clouds
7:55 AM 44.6 °F 33.3 °F 37.4 °F 76% 30.09 in 6.2 mi SW 40.3 mph - N/A   Mostly Cloudy
8:00 AM 44 °F - 37 °F 69%  in 12 mi SW 40.3 mph - -   Partly Cloudy
8:55 AM 44.6 °F 34.1 °F 37.4 °F 76% 30.06 in 6.2 mi SW 34.5 mph - N/A   Mostly Cloudy
9:55 AM 44.6 °F 34.4 °F 41.0 °F 87% 30.06 in 6.2 mi SW 32.2 mph - N/A   Mostly Cloudy
10:55 AM 46.4 °F 37.4 °F 41.0 °F 81% 30.06 in 6.2 mi SW 28.8 mph - N/A   Scattered Clouds
11:55 AM 46.4 °F 38.7 °F 42.8 °F 87% 30.06 in 6.2 mi SW 20.7 mph - N/A   Mostly Cloudy
12:55 PM 46.4 °F 37.9 °F 42.8 °F 87% 30.09 in 0.0 mi SW 25.3 mph - N/A Fog Fog
1:55 PM 46.4 °F 37.4 °F 44.6 °F 93% 30.06 in 0.0 mi SW 28.8 mph - N/A Fog Fog
2:00 PM 46 °F - 44 °F 92%  in 0 mi SW 28.8 mph - - Fog Heavy Fog
2:55 PM 46.4 °F 37.2 °F 46.4 °F 100% 30.06 in 0.0 mi SW 29.9 mph - N/A Fog Fog
3:55 PM 46.4 °F 36.0 °F 44.6 °F 93% 30.01 in 0.0 mi SSW 39.1 mph - N/A Fog Fog
4:55 PM 44.6 °F 33.3 °F 44.6 °F 100% 29.98 in 0.0 mi SSW 40.3 mph - N/A Fog , Rain Light Rain
5:55 PM 44.6 °F 33.5 °F 44.6 °F 100% 29.98 in 0.0 mi SSW 39.1 mph - N/A Fog , Rain Rain
6:55 PM 44.6 °F 33.6 °F 42.8 °F 93% 29.95 in 0.0 mi SW 38.0 mph - N/A Fog , Rain Rain
7:55 PM 44.6 °F 34.1 °F 42.8 °F 93% 29.95 in 0.0 mi SW 34.5 mph - N/A Fog , Rain Rain
8:00 PM 45 °F - 43 °F 92%  in 0 mi SW 34.5 mph - - Rain Rain
8:55 PM 44.6 °F 34.1 °F 42.8 °F 93% 29.95 in 0.0 mi SW 34.5 mph - N/A Fog , Rain Rain
9:55 PM 44.6 °F 35.1 °F 42.8 °F 93% 29.95 in 0.0 mi SW 27.6 mph - N/A Fog Fog
10:55 PM 44.6 °F 34.9 °F 42.8 °F 93% 29.95 in 0.0 mi SW 28.8 mph - N/A Fog Fog
11:55 PM 44.6 °F 34.9 °F 41.0 °F 87% 29.95 in 0.0 mi SW 28.8 mph - N/A Fog Fog